This is the latest recevied weather packets stored in our database for station/object WC4PEM-11. If no packets are shown the sender has not sent any weather packets the latest 1 day(s).
| Time | Temp. | Humidity | Pressure | Rain* | Wind** | Luminosity | Snow |
|---|---|---|---|---|---|---|---|
| 1777981085 | 17.78° C | 95% | 1015.5 hPa | 0 mm | 1.34 m/s, 53° | - | - |
| 1777980785 | 17.78° C | 95% | 1015.4 hPa | 0 mm | 1.34 m/s, 71° | - | - |
| 1777980485 | 17.78° C | 95% | 1015.2 hPa | 0 mm | 1.34 m/s, 67° | - | - |
| 1777980185 | 17.78° C | 95% | 1015.1 hPa | 0 mm | 1.34 m/s, 81° | - | - |
| 1777979885 | 17.78° C | 95% | 1015.2 hPa | 0 mm | 1.79 m/s, 59° | - | - |
| 1777979585 | 17.78° C | 95% | 1015.1 hPa | 0 mm | 1.79 m/s, 111° | - | - |
| 1777979285 | 17.78° C | 95% | 1015 hPa | 0 mm | 1.79 m/s, 88° | - | - |
| 1777978985 | 17.78° C | 95% | 1015 hPa | 0 mm | 1.34 m/s, 63° | - | - |
| 1777978685 | 17.78° C | 95% | 1014.9 hPa | 0 mm | 1.79 m/s, 54° | - | - |
| 1777978395 | 17.78° C | 95% | 1014.7 hPa | 0 mm | 1.79 m/s, 80° | - | - |
| 1777978385 | 17.78° C | 95% | 1014.8 hPa | 0 mm | 2.24 m/s, 78° | - | - |
| 1777978085 | 17.78° C | 95% | 1014.8 hPa | 0 mm | 2.24 m/s, 63° | - | - |
| 1777977785 | 17.78° C | 95% | 1014.8 hPa | 0 mm | 1.79 m/s, 61° | - | - |
| 1777977485 | 17.78° C | 95% | 1014.7 hPa | 0 mm | 1.79 m/s, 73° | - | - |
| 1777977185 | 17.78° C | 95% | 1014.7 hPa | 0 mm | 1.79 m/s, 80° | - | - |
| 1777976885 | 17.78° C | 95% | 1014.7 hPa | 0 mm | 1.79 m/s, 63° | - | - |
| 1777976650 | 17.78° C | 95% | 1014.8 hPa | 0 mm | 1.79 m/s, 71° | - | - |
| 1777976585 | 17.78° C | 95% | 1014.8 hPa | 0 mm | 1.79 m/s, 71° | - | - |
| 1777976406 | 17.78° C | 95% | 1014.8 hPa | 0 mm | 1.79 m/s, 81° | - | - |
| 1777976285 | 17.78° C | 95% | 1014.8 hPa | 0 mm | 1.79 m/s, 74° | - | - |
| 1777975985 | 17.78° C | 95% | 1014.8 hPa | 0 mm | 1.79 m/s, 81° | - | - |
| 1777975685 | 17.78° C | 94% | 1014.7 hPa | 0 mm | 1.79 m/s, 59° | - | - |
| 1777975385 | 17.78° C | 94% | 1014.7 hPa | 0 mm | 1.79 m/s, 67° | - | - |
| 1777975085 | 17.78° C | 94% | 1014.6 hPa | 0 mm | 1.79 m/s, 61° | - | - |
| 1777974785 | 17.78° C | 94% | 1014.6 hPa | 0 mm | 1.34 m/s, 64° | - | - |
* Rain latest hour (hover to see other rain measurements)
** Current wind speed in m/s (hover to see current wind gust speed)